Барылас

Россия / Республика Саха (Якутия)     65°53′40″N   132°42′27″E
темп.,
°C
ветер,
м/с
пор.,
м/с
влажн.,
%
обл.,
%
осадки,
мм/ч
давл.,
гПа
погр.,
м
26 октября, вт
вт2601:00−20ю229950 0.0 100711
04:00−20ю229875 0.0 100714
07:00−21ю229821 0.0 100813
10:00−19ю22955 0.0 100823
13:00−12ю248331 0.0 1006118
16:00−12ююв228890 0.0 100615
19:00−15ююв229083 0.0 100713
22:00−15ююв229187 0.0 100814
27 октября, ср
ср2701:00−16ююв229274 0.0 100815
04:00−14ююв2289100 0.0 100827
07:00−15ююв2290100 0.0 100914
10:00−12ююв229096 0.0 100934
13:00−7ю3585100 0.0 1008127
16:00−7ю3386100 0.0 100836
19:00−11ююз338965 0.0 100924
22:00−16ю33955 0.0 101118
28 октября, чт
чт2801:00−17ю33935 0.0 101123
04:00−17ю3393100 0.0 100920
07:00−15ююв2288100 0.0 100719
10:00−12ююв3485100 0.0 100574
13:00−8ююв2491100 0.3 1002167
16:00−8ю478798 0.3 100195
19:00−8ююз5875100 0.0 1003133
22:00−9юз4674100 0.0 1005104
29 октября, пт
пт2901:00−11юз467598 0.0 100779
04:00−11ююз4579100 0.0 100864
07:00−12ююз4479100 0.0 101036
10:00−12ююз3582100 0.0 101264
13:00−10ююз3680100 0.0 1012160
16:00−13ю3386100 0.0 101419
19:00−16ю2289100 0.0 101716
22:00−15ю228899 0.0 101815
30 октября, сб
сб3001:00−18ю2292100 0.0 102010
04:00−20ююз1194100 0.0 10229
07:00−22з009686 0.0 10249
10:00−23ююз11976 0.0 10279
13:00−17юз11895 0.0 102657
16:00−19ююз22955 0.0 102810
19:00−24ю22996 0.0 103014
22:00−25ю3210026 0.0 103115